Location: Unspecified
(0.0000°N, 0.0000°E)
Time: 06:01:25
(UTC+00:00)

Vanguard 2 - Pass Details

Date: 24 September 2019
Orbit: 554 x 2937 km, 32.9° (Epoch: 14 October)

Event Time Altitude Azimuth Distance (km) Brightness Sun altitude
Rises 19:24:24 0° 216° (SW) 5,190 12.3 -23.1°
Reaches altitude 10° 19:27:58 10° 206° (SSW) 4,516 11.7 -24.0°
Maximum altitude 19:39:50 35° 145° (SE) 3,695 10.6 -27.0°
Enters shadow 19:43:54 31° 121° (ESE) 4,023 10.7 -28.0°
Drops below altitude 10° 19:54:54 10° 87° (E) 5,764 - -30.7°
Sets 20:00:08 0° 78° (ENE) 6,759 - -32.0°
